Regional Weather Roundup
Issued by NWS Austin/San Antonio, TX

Home | Current Version | Previous Version | Text Only | Print | Product List | Glossary On
Versions: 1 2 3 4 5 6 7 8 9 10 11 12 13 14 15 16 17 18 19 20 21 22 23 24 25 26 27 28 29 30 31 32 33 34 35 36 37 38 39 40 41 42 43 44 45 46 47 48 49 50
140
ASUS44 KEWX 210911
RWREWX
SOUTH TEXAS REGIONAL WEATHER ROUNDUP
NATIONAL WEATHER SERVICE AUSTIN/SAN ANTONIO TX
400 AM CDT MON OCT 21 2019

NOTE: "FAIR" INDICATED FEW OR NO CLOUDS BELOW 12,000 FEET WITH NO
SIGNIFICANT WEATHER AND/OR OBSTRUCTIONS TO VISIBILITY.

* - THESE STATIONS ARE NOT NWS OR FAA STATIONS...AND ARE NOT SUBJECT
    TO NWS AND FAA QUALITY CONTROL.

TXZ171-172-183>190-211000-
TEXAS HILL COUNTRY AND EDWARDS PLATEAU

CITY           SKY/WX    TMP DP  RH WIND       PRES   REMARKS
JUNCTION       CLEAR     62  59  90 W5        29.85R
*LLANO         PTCLDY    64  63  94 CALM      29.84R
BURNET         LGT RAIN  64  62  93 VRB3      29.82R
*HORSESHOE BAY LGT RAIN  64  61  88 S8G18     29.76F
*KERRVILLE     LGT RAIN  61  57  87 CALM      29.83F
*FREDERICKSBRG LGT RAIN  62  58  87 CALM      29.81F
*ROCKSPRINGS   DRIZZLE   61  57  88 CALM      29.87F
*BOERNE        CLOUDY    61  61 100 NW7G18    29.82R
*CASTROVILLE   PTCLDY    77  74  92 N17G28    29.78R FOG
HONDO          CLOUDY    70  58  65 N23       29.78R
*UVALDE        CLOUDY    78  73  87 N6        29.76R
DEL RIO        CLEAR     75  70  84 NE7       29.73R
LAUGHLIN AFB   CLEAR     73  70  92 E8        29.73S
SPOFFORD       CLEAR     75  72  91 E6        29.68R
*EAGLE PASS    PTCLDY    75  72  88 SE5       29.72S
CARRIZO SPRGS  CLOUDY    79  73  83 CALM      29.69S
*FAITH RANCH   CLOUDY    79  75  89 CALM      29.70R
$$

TXZ173-191>194-202-209-217>225-228-211000-
CENTRAL AND SOUTH CENTRAL TEXAS

CITY           SKY/WX    TMP DP  RH WIND       PRES   REMARKS
GEORGETOWN     LGT RAIN  67  63  87 W10       29.79S
AUSTIN/BERGSTM RAIN      67  64  90 W12G28    29.77R FOG
AUSTIN/MABRY   LGT RAIN  67  63  87 NW9G23    29.78R
*AUSTIN/EXEC   RAIN      64  63  94 NW12G26   29.78R
*LAGO VISTA    RAIN      64  63  95 W8        29.80S
SAN MARCOS     HVY RAIN  66  63  88 NW15G29   29.79R FOG
NEW BRAUNFELS  MOCLDY    72  60  66 NW23G43   29.77R
RANDOLPH AFB   MOCLDY    72  64  78 N23G39    29.77R
SEGUIN         MOCLDY    77  75  93 NW8       29.76F
KELLY FIELD    CLEAR     77  74  91 NW8       29.73R
SAN ANTONIO    CLOUDY    69  62  78 NW22G37   29.78R THUNDER
STINSON FIELD  LGT RAIN  76  75  97 SE5       29.70F
PLEASANTON     CLOUDY    78  73  87 N5        29.73R
*LA GRANGE     PTCLDY    81  79  95 S9        29.67F HX  90
*GIDDINGS      PTCLDY    80  76  90 SW9       29.69F
*GONZALES      LGT RAIN  81  77  89 SW6       29.72S
$$

TXZ163>164-176>182-195>201-210>213-226-227-235-211000-
SOUTHEAST TEXAS

CITY           SKY/WX    TMP DP  RH WIND       PRES   REMARKS
COLLEGE STN    MOCLDY    81  76  84 S6        29.68F
*BRYAN         CLOUDY    81  80  96 S5        29.70F HX  90
*CALDWELL      MOCLDY    79  76  89 SW10      29.70S
*CROCKETT      MOCLDY    79  73  83 S14       29.71F
*BRENHAM       CLOUDY    80  76  88 SW6       29.69F
HUNTSVILLE     TSTM      78  75  90 S7G21     29.69F FOG
CONROE         CLOUDY    80  75  84 S10       29.70F
HOUSTON BUSH   MOCLDY    80  75  84 S6        29.69F
HOUSTON HOBBY  MOCLDY    81  75  82 S12       29.69F
*HOUSTON SW AP CLOUDY    80  76  90 S7        29.70F
PEARLAND       CLOUDY    82  76  81 S13G22    29.71F
HOUSTON HOOKS  CLOUDY    80  74  81 S8        29.70F
ELLINGTON FLD  MOCLDY    79  75  89 S8        29.68F
SUGAR LAND     LGT RAIN  81  78  91 S12       29.69F
*HOUSTON EXEC  LGT RAIN  79  79 100 S8        29.70F
*CLEVELAND MUN MOCLDY    77  77 100 CALM      29.70F
*WHARTON       CLOUDY    78  75  90 S10       29.70S
*COLUMBUS      CLOUDY    77  73  88 SW12G17   29.72S
*EAGLE LAKE    DRIZZLE   82  79  92 SW6       29.70F HX  91
$$

TXZ214>216-236>238-211000-
THE UPPER TEXAS COAST

CITY           SKY/WX    TMP DP  RH WIND       PRES   REMARKS
*ORANGE        CLOUDY    81  79  95 S8        29.74F
PORT ARTHUR    MOCLDY    81  77  88 S10G20    29.71F
GALVESTON      FAIR      82  79  90 S23       29.70F HX  92
ANGLETON       CLOUDY    81  77  88 S13       29.69F
*BAY CITY      MOCLDY    79  75  87 S5        29.70S
PALACIOS       PTCLDY    78  74  87 S10       29.69F
$$

TXZ229>234-239>247-211000-
TEXAS COASTAL BEND AND RIO GRANDE PLAINS

CITY           SKY/WX    TMP DP  RH WIND       PRES   REMARKS
VICTORIA       CLOUDY    82  77  84 S10       29.69F HX  90
*BEEVILLE      CLOUDY    84  79  85 S10       29.68S HX  95
ROCKPORT       PTCLDY    83  78  85 S7G17     29.67R HAZE    HX  93
*PORT ARANSAS  CLOUDY    81  79  91 S12       29.69S HX  90
*PORT LAVACA   CLEAR     82  79  91 S8        29.69S HX  92
*INGLESIDE     MOCLDY    82  80  91 SW13      29.67F HX  94
CORPUS CHRISTI CLOUDY    79  76  90 S16       29.66F
CORPUS NAS     CLEAR     80  76  87 S12G20    29.68R
*ROBSTOWN      PTCLDY    81  75  82 S17       29.67F
ALICE          PTCLDY    82  77  84 S13       29.68R HX  90
KINGSVILLE NAS MOCLDY    82  78  88 S15       29.66F HX  91
COTULLA        CLOUDY    82  77  84 CALM      29.70R HX  90
LAREDO         CLEAR     78  74  87 SE12      29.66R
$$

TXZ248>255-211000-
DEEP SOUTH TEXAS

CITY           SKY/WX    TMP DP  RH WIND       PRES   REMARKS
BROWNSVILLE    FAIR      76  72  87 S8        29.71F
PORT ISABEL    LGT RAIN  76  73  91 S9        29.72F
HARLINGEN      LGT RAIN  74  74 100 S8        29.70S
*HEBBRONVILLE  MOCLDY    79  74  86 CALM      29.70R
MCALLEN        PTCLDY    76  73  91 SE6       29.70S
*WESLACO       MOCLDY    74  72  92 SW3       29.72
FALFURRIAS     CLEAR     81  74  79 S15G21    29.69R
EDINBURG       FAIR      74  72  93 SE5       29.71F
*ZAPATA        NOT AVBL
$$

TXZ213>215-236>238-242>244-246-247-251-254-255-211000-
CMAN STATIONS

STATION/POSITION TIME  TEMP    WIND        PRES    WAVE
                       AIR SEA DIR/SP/G            HT/PER
                 (UTC) (F)     (DEG/KT/KT) (MB)    (FT/S)
SABINE PASS      0824   80 78  170/ 15/ 23 1007.9
SEA RIM ST PARK  0900   80     180/ 13/ 15 1006.2
NORTH JETTY/GLS  0824   82 77  190/ 22/ 24 1004.7
EAGLE POINT      0824   81 76  180/ 19/ 25 1005.2
MORGANS POINT    0830   81 77  180/  9/ 14 1006.0
PORT O`CONNOR    0824   79 81  150/ 14/ 16 1004.4
PORT ARANSAS     0900   81 80  160/ 15/ 16 1005.0
MALAQUITE BEACH  0830   81 82  170/ 20/ 23 1004.2
BAFFIN BAY       0830   79 81  160/ 17/ 22 1004.6
PORT ISABEL      0824   75 81  180/ 14/ 19 1006.6
$$




USA.gov is the U.S. government's official web portal to all federal, state and local government web resources and services.